Temp
8 8 8 8 8 8 8 8 8 10 11 12 13 12 13 12 13 15 19 19 18 18 18 21 22 24 24 27 28 29 28 28 29 29 30 30 29 30 32 31 32 32 32 32 31
8 8 8 8 8 8 8 7 7 9 12 12 13 13 13 13 13 19 20 19 18 18 20 23 24 24 26 27 28 28 28 29 31 31 31 31 30 29 28 30 31 32 32 31 31
8 8 8 8 8 8 8 8 8 8 10 13 13 13 14 13 19 23 20 19 18 18 20 21 23 25 25 27 27 27 27 30 30 31 30 30 30 31 28 28 29 30 30 31 31
8 8 8 8 8 8 8 8 8 7 9 12 13 13 14 14 23 22 19 19 19 19 21 22 24 24 25 25 27 26 28 28 29 29 29 29 29 29 29 28 28 29 30 30 31
7 8 8 8 8 8 8 8 8 9 12 13 13 13 14 21 23 19 19 19 18 20 22 23 24 24 24 26 26 25 27 27 27 28 28 29 28 28 28 28 28 29 29 30 31
7 7 7 8 8 8 8 7 7 10 13 14 13 13 16 22 21 20 19 19 21 22 23 23 24 24 24 24 24 26 26 26 27 27 27 27 28 28 28 28 27 28 28 29 30
7 7 7 7 7 8 8 8 11 13 14 14 13 12 18 23 21 20 20 21 21 21 24 23 23 24 24 24 25 24 23 25 26 26 27 28 26 27 29 27 27 28 28 28 29
7 7 6 7 7 8 8 11 14 15 15 14 13 14 21 21 20 20 21 22 21 21 22 22 23 24 24 24 24 23 24 24 27 26 27 26 26 27 26 26 27 26 27 28 28
6 7 8 9 11 12 13 14 14 15 15 14 13 16 22 21 22 22 22 23 23 22 22 22 23 24 23 23 24 24 24 25 26 25 25 25 26 28 26 25 25 24 26 27 27
7 7 10 11 14 14 14 14 14 14 13 13 15 18 22 23 22 22 22 22 23 24 23 23 23 23 24 24 24 25 24 24 24 25 25 25 25 26 26 25 25 25 24 26 27
6 7 10 12 14 15 13 14 18 19 17 21 21 21 22 22 21 23 23 23 23 23 22 23 23 23 24 24 23 23 23 23 24 25 23 24 25 26 26 26 26 25 24 24 25
6 7 11 14 15 15 14 20 18 17 20 21 21 21 21 21 22 24 23 23 23 22 23 22 22 24 23 23 22 22 22 23 24 24 23 23 24 25 25 26 26 26 25 25 25
6 12 13 15 16 15 18 17 16 16 20 22 22 22 23 22 23 23 24 24 23 23 23 22 23 23 22 22 22 22 22 22 22 23 23 23 23 25 25 25 25 25 25 24 23
7 12 15 16 16 17 19 16 17 16 21 22 22 23 23 23 22 24 24 24 23 22 23 23 23 22 22 22 23 22 24 22 21 21 22 23 21 25 25 25 24 25 25 25 24
11 14 15 16 16 19 17 16 16 17 21 23 23 23 24 23 23 23 23 24 22 23 22 23 22 22 21 22 23 22 22 21 21 21 21 22 22 24 23 23 23 24 24 24 24
14 14 15 16 15 16 16 16 17 20 20 22 23 22 22 23 23 23 23 23 23 23 23 23 24 22 22 22 22 22 21 21 22 21 20 23 23 24 24 24 24 24 24 24 24
15 15 15 16 18 16 16 19 20 20 22 21 22 22 22 22 22 22 22 22 21 21 21 23 23 23 22 21 21 21 21 20 21 22 21 21 20 23 23 23 23 23 23 23 23
15 15 15 14 15 15 18 20 19 21 21 21 21 21 21 22 22 21 21 21 22 21 21 21 21 22 22 22 22 22 21 20 19 21 22 21 20 23 23 23 22 22 22 22 23
15 15 16 15 15 15 20 20 20 20 20 20 20 20 21 20 20 21 21 21 22 22 20 21 20 21 20 22 21 21 19 21 19 20 20 21 23 22 22 22 22 22 22 22 22
14 17 19 15 15 17 20 19 20 20 19 19 19 20 20 20 19 20 20 21 20 20 21 20 18 21 21 20 20 20 21 18 19 17 18 21 22 22 22 22 22 22 22 22 22
14 19 16 14 14 20 18 20 19 20 19 18 19 19 19 19 20 20 20 20 20 20 20 20 19 19 20 19 19 19 19 19 19 19 18 19 22 22 22 22 21 21 21 22 21
16 20 16 15 19 19 19 19 15 19 19 19 19 18 18 19 19 19 19 20 20 20 19 20 17 18 19 20 20 19 19 19 17 16 18 18 19 23 22 22 21 21 22 21 21
17 18 16 16 19 20 19 18 17 17 18 18 18 18 18 17 17 18 18 20 19 19 18 19 17 16 18 18 18 17 19 19 19 18 16 16 20 22 22 22 22 22 21 21 21
16 18 19 18 16 16 16 17 17 17 17 16 17 17 17 17 18 17 18 18 18 18 16 16 16 15 15 17 14 15 16 18 18 15 17 18 19 21 22 22 22 22 21 21 20
15 15 13 18 18 15 15 16 16 16 17 16 17 15 15 15 17 17 17 17 18 17 16 16 15 16 17 18 17 17 16 16 16 17 16 18 19 20 21 21 21 21 21 20 20
14 14 14 15 14 14 13 17 16 16 14 16 15 15 16 14 15 15 16 16 15 16 16 16 14 16 15 17 17 16 17 18 19 19 19 19 19 21 22 22 21 21 20 20 20
10 10 11 14 15 14 17 16 15 14 14 14 14 14 13 14 15 15 15 14 15 14 15 15 13 13 14 17 16 16 18 18 19 19 19 19 20 22 21 21 20 20 20 19 20
Height
824 821 818 816 813 810 808 805 803 801 800 798 797 795 793 790 787 787 782 781 781 778 779 779 777 776 775 770 769 766 774 771 764 763 760 754 764 755 748 752 748 749 749 749 748
823 819 816 814 811 809 806 804 801 799 798 797 796 793 791 788 788 783 781 778 779 778 778 774 772 774 770 767 765 766 766 759 747 747 750 747 754 755 761 755 750 746 745 748 747
821 818 815 812 809 806 804 801 799 797 796 795 794 792 790 788 785 777 779 779 779 778 778 777 775 772 769 763 762 760 760 747 744 743 749 750 748 746 761 760 754 751 752 749 747
820 816 813 810 807 804 801 798 796 795 794 793 792 791 788 790 777 778 779 779 779 779 778 775 772 770 768 767 758 767 753 752 746 747 753 753 748 748 750 751 749 752 751 751 746
817 814 811 808 804 801 798 796 794 792 791 791 791 790 789 782 773 778 778 779 780 779 776 772 769 767 768 762 760 767 757 753 754 752 750 748 748 752 748 747 748 751 750 750 747
815 811 807 804 801 798 795 793 791 790 790 790 790 790 790 779 776 778 779 779 779 777 775 773 769 768 766 767 767 756 757 755 754 752 750 753 747 745 742 743 747 742 749 749 747
812 808 804 801 798 795 792 789 788 787 788 789 789 791 787 773 777 778 778 778 777 777 773 773 772 770 767 765 760 762 768 757 753 751 750 746 750 744 736 741 741 736 744 748 745
809 805 801 798 795 792 789 786 785 785 786 787 788 791 776 775 776 777 776 776 776 776 776 774 773 769 767 762 763 766 760 761 738 744 743 748 748 735 741 743 741 741 738 742 745
806 802 798 795 792 789 787 785 784 784 785 787 790 788 770 773 773 773 774 771 772 774 774 774 771 767 767 766 761 757 759 753 745 747 745 748 743 729 740 742 746 747 741 740 743
803 799 795 792 790 788 787 787 787 787 788 789 788 787 770 767 770 771 771 772 770 770 771 771 767 767 761 761 760 749 758 756 756 744 747 745 743 734 736 741 743 743 743 736 739
801 796 792 790 789 788 789 790 787 785 784 771 771 771 769 770 770 767 768 768 768 767 770 765 768 763 753 756 758 760 761 759 750 745 754 746 739 735 732 733 734 737 738 737 738
797 793 790 789 788 787 787 784 788 790 777 772 772 771 770 770 767 763 766 767 765 767 765 769 767 752 758 762 764 761 760 755 748 747 754 748 741 733 728 726 722 722 728 731 733
794 789 787 788 789 789 788 789 789 788 776 768 767 766 765 768 763 760 761 759 762 762 761 764 754 753 762 761 763 757 760 756 758 751 749 743 738 720 717 719 720 721 722 730 735
791 787 786 787 791 790 788 790 788 787 771 768 765 762 764 762 763 756 757 758 758 760 758 756 751 760 759 760 756 759 744 756 759 760 755 738 749 721 717 718 719 720 722 724 727
789 787 787 786 788 786 791 788 787 786 779 762 761 760 759 761 758 755 756 754 759 754 761 751 755 758 759 754 751 756 752 756 756 756 751 743 744 718 721 723 724 720 721 722 724
791 788 788 789 788 789 788 786 787 781 780 764 757 760 760 757 756 753 755 754 749 751 748 749 740 751 749 750 752 751 756 753 748 748 749 727 729 711 712 717 715 720 719 722 722
792 790 789 788 787 787 785 783 780 775 762 763 761 760 759 759 756 757 755 753 756 758 752 743 742 742 749 753 753 755 754 753 748 738 738 730 740 718 714 716 717 719 720 722 722
793 791 790 788 787 785 784 778 783 763 763 762 763 760 761 753 754 756 756 753 745 749 749 748 747 740 742 744 743 740 748 752 754 738 723 730 736 710 709 713 719 720 721 720 720
790 790 790 788 785 784 778 775 771 766 768 769 763 763 755 759 763 756 753 749 740 743 755 745 744 738 745 740 746 742 755 741 750 739 739 726 710 713 714 717 718 718 720 717 717
790 786 784 786 783 783 774 775 767 767 768 769 771 762 762 755 762 756 750 745 748 747 745 745 756 738 740 747 743 747 738 753 748 755 739 714 706 705 713 713 714 717 716 717 715
789 780 784 783 784 775 777 765 769 765 768 771 767 765 761 760 756 755 751 745 747 745 747 746 750 746 741 746 741 741 742 745 741 732 738 728 706 696 709 712 714 715 714 712 711
788 776 785 783 776 774 770 771 780 768 764 765 764 763 761 757 756 753 751 745 744 746 751 744 753 746 739 730 729 734 732 735 745 744 730 731 717 697 704 705 708 711 706 707 709
789 781 782 782 774 769 772 773 773 770 766 763 762 760 758 761 762 749 748 744 745 748 747 745 748 750 734 735 736 738 730 729 726 730 736 736 707 698 701 700 698 700 701 702 703
793 781 778 778 785 783 779 773 772 769 768 768 764 762 761 759 753 750 746 747 750 750 755 755 752 753 749 732 754 745 737 727 726 742 726 712 707 698 693 693 692 693 693 696 697
798 795 798 777 775 786 784 775 773 772 768 766 760 765 764 762 752 749 747 746 746 748 752 750 749 741 731 728 729 729 732 732 733 726 727 710 703 695 690 689 688 689 691 694 693
801 799 796 787 788 786 783 767 771 770 775 765 766 763 760 766 760 756 753 752 751 748 748 745 745 741 737 728 723 725 719 713 707 704 699 696 691 686 679 679 682 686 687 687 685
811 810 805 787 781 783 769 770 771 776 771 770 769 768 766 761 758 756 756 754 752 751 746 746 751 751 736 721 723 720 704 698 695 693 693 692 680 674 675 674 678 679 683 684 683
Wind_Speed
16 16 16 16 16 15 15 14 14 11 10 10 11 13 15 16 15 8 6 3 2 8 3 6 6 7 9 11 13 13 14 19 24 21 16 9 12 7 10 11 10 6 8 10 17
17 17 17 16 16 16 15 15 15 12 9 9 11 13 14 14 11 6 4 3 2 2 4 5 8 8 10 12 9 14 16 27 22 20 18 14 17 10 7 12 13 11 4 12 19
18 18 18 18 18 18 17 16 15 13 11 8 10 12 12 10 8 6 1 4 3 2 2 3 4 9 13 11 16 16 23 21 21 15 17 18 20 17 14 14 14 13 13 16 16
20 19 19 19 19 19 18 17 16 13 10 8 9 10 9 4 1 4 3 4 3 2 1 4 6 10 11 14 15 16 16 18 21 16 15 18 17 21 17 16 6 12 14 17 15
20 21 20 19 19 18 18 16 15 13 8 6 7 8 5 7 3 3 4 4 3 1 1 1 3 5 11 7 11 16 19 10 14 18 20 18 20 18 17 13 8 14 13 14 16
19 20 21 21 20 19 17 15 13 10 7 5 5 5 6 7 5 3 6 5 4 4 1 2 2 3 5 10 10 4 12 14 16 16 18 19 21 18 19 10 9 11 13 15 12
21 20 20 20 21 20 17 14 12 7 5 4 2 3 7 2 5 3 5 5 5 5 4 2 2 6 2 7 4 11 13 15 16 18 21 18 22 25 17 9 18 17 13 13 11
21 21 18 19 19 18 16 14 10 6 5 5 3 4 5 3 3 6 6 8 7 6 6 5 5 7 7 2 9 11 11 15 14 11 17 14 19 3 2 12 16 17 16 16 11
22 20 20 19 17 14 9 4 4 3 5 6 3 5 3 3 6 2 6 5 4 4 5 2 8 8 5 11 10 10 13 8 7 4 4 11 14 20 3 6 5 5 10 11 10
22 21 20 16 10 8 5 7 7 8 7 4 5 5 5 5 3 3 4 6 6 4 5 9 7 10 9 9 9 6 9 7 11 7 9 13 13 12 11 10 10 11 13 10 11
24 22 18 12 5 3 4 1 6 6 8 6 1 5 1 1 4 9 5 6 6 8 10 7 10 11 7 4 9 8 9 11 8 6 10 13 16 16 16 16 16 14 13 13 11
24 20 14 6 1 4 2 2 6 6 6 6 7 8 8 4 4 9 9 8 8 8 4 9 13 7 3 6 8 10 13 12 8 8 9 15 19 20 20 18 19 18 17 15 11
23 14 8 1 5 4 4 5 7 2 6 3 4 4 5 10 5 5 12 10 9 9 7 10 4 3 9 8 10 12 12 12 11 13 16 19 20 21 7 10 9 11 10 7 6
20 11 3 7 3 1 2 8 8 4 5 9 6 5 6 4 5 5 10 7 7 9 5 8 6 8 10 11 11 14 6 8 10 12 12 8 10 12 10 12 9 11 9 8 5
16 7 5 3 2 1 6 10 2 4 4 7 5 4 2 8 5 7 5 10 15 10 7 4 11 10 11 13 8 13 1 9 12 15 18 19 11 14 4 9 9 6 3 5 1
11 5 6 4 2 4 9 5 4 5 4 7 4 5 7 8 6 3 6 7 6 14 16 18 9 9 12 4 8 1 9 12 17 13 15 19 14 10 9 7 10 11 3 3 2
8 4 3 2 3 7 6 4 5 6 3 4 5 5 8 11 10 8 11 13 12 13 17 19 18 14 9 12 9 11 12 10 10 11 11 6 6 14 4 5 3 6 4 3 5
5 1 1 1 4 5 4 5 7 2 4 1 4 9 12 6 11 9 12 13 12 15 15 15 14 15 13 16 15 11 9 10 17 12 10 12 7 2 5 3 4 2 3 3 3
5 3 3 2 4 3 5 7 4 2 3 4 9 11 10 6 6 7 13 15 14 9 14 11 15 3 6 7 9 11 11 8 12 16 14 16 14 7 13 9 8 5 5 7 6
4 5 3 7 3 5 5 5 4 2 3 4 6 4 8 5 6 4 7 1 6 9 8 10 12 14 8 7 14 13 12 8 10 11 18 14 13 8 12 7 7 5 5 7 12
2 4 3 4 3 5 5 4 5 4 5 5 8 11 12 12 12 13 7 6 6 6 8 12 10 14 9 14 16 8 13 12 14 13 12 12 6 10 2 3 5 5 9 14 15
4 3 3 3 4 2 5 3 4 9 7 10 8 14 17 16 16 16 14 11 1 8 11 13 7 14 18 16 12 13 18 15 12 15 11 13 16 6 6 6 3 11 14 12 13
5 3 1 5 3 3 5 10 6 9 7 4 6 5 5 10 9 11 12 8 9 11 8 8 9 12 16 8 5 12 17 16 16 15 19 13 8 9 9 13 14 17 14 14 12
4 3 2 2 3 5 5 5 5 3 10 6 9 9 11 14 14 11 12 6 5 10 4 5 15 18 16 19 6 7 7 13 17 13 17 20 21 20 22 20 17 18 15 14 12
3 2 3 3 1 8 3 5 9 6 4 6 5 6 8 9 13 16 17 14 12 11 12 11 20 21 21 22 21 22 21 22 22 22 22 23 25 23 24 22 20 16 14 13 15
4 4 1 6 5 8 1 3 8 7 5 8 12 13 12 15 15 19 19 19 19 15 14 15 18 18 23 21 21 23 23 26 26 26 27 27 29 25 26 20 14 12 15 16 16
3 2 3 3 3 4 4 5 6 7 8 9 11 12 13 16 17 17 17 17 16 15 13 11 7 6 14 16 13 15 21 21 24 25 22 24 25 18 16 13 12 13 15 17 20
Wind_Direction
349 346 342 337 332 328 322 322 318 316 315 320 320 320 320 316 325 294 272 276 212 253 256 253 237 215 215 231 227 234 242 244 242 242 249 206 231 216 267 262 269 294 300 339 334
345 342 339 334 331 327 322 317 315 312 307 312 318 322 324 320 304 253 289 208 175 98 248 236 212 207 216 224 211 219 234 244 251 252 263 251 230 227 250 261 264 277 259 317 328
341 338 336 333 331 327 323 317 313 308 304 303 315 323 327 331 269 65 77 131 136 132 250 227 223 226 232 230 222 226 245 255 251 259 255 261 243 238 240 243 260 305 311 317 315
340 336 334 333 331 329 324 318 313 305 297 295 309 324 329 274 303 101 138 144 121 157 140 177 216 218 231 222 231 244 251 260 268 244 242 250 263 269 229 243 301 290 300 305 307
339 335 332 330 328 326 323 316 310 303 285 278 305 335 326 227 134 133 173 175 181 232 317 102 205 234 239 244 233 243 254 243 256 255 256 263 255 257 257 255 271 275 292 291 298
336 333 332 329 328 326 321 314 307 302 268 261 305 343 272 244 117 142 173 193 240 255 178 247 27 333 276 249 236 314 260 253 248 251 252 252 260 256 258 257 274 231 283 288 296
336 333 331 330 328 325 319 312 302 280 256 239 281 304 257 332 160 149 201 242 244 256 266 210 275 261 334 243 262 268 261 245 240 245 251 252 259 251 256 251 249 227 248 285 274
336 332 331 331 329 326 319 308 287 254 208 208 214 267 266 173 202 251 238 248 240 248 270 273 245 282 258 315 237 249 244 254 232 240 245 240 257 141 166 244 240 268 249 254 263
335 334 332 331 332 333 336 16 59 124 180 175 186 239 161 190 216 202 209 265 188 225 236 231 232 267 220 239 240 208 264 216 208 222 278 225 255 228 194 248 253 266 210 230 237
334 333 330 334 337 353 90 101 90 86 112 177 255 233 218 152 194 240 235 248 249 214 208 220 230 240 226 236 259 254 240 214 259 180 256 258 250 248 234 244 255 259 257 218 245
334 331 331 331 348 60 113 228 213 183 211 283 95 304 213 290 240 210 195 186 221 236 252 193 257 231 256 280 309 283 269 264 264 269 266 262 262 264 258 257 246 238 241 251 242
336 332 332 329 49 105 99 344 32 334 291 228 255 257 259 254 249 221 202 222 213 251 230 229 238 259 247 260 257 256 261 259 265 275 280 284 276 278 268 257 249 242 227 227 229
336 340 342 51 130 80 53 46 338 276 261 161 217 228 198 206 248 216 202 216 239 245 234 270 1 261 218 221 258 252 265 280 283 307 281 270 280 256 247 247 221 243 233 190 210
342 348 67 131 129 175 100 344 333 211 268 147 189 159 181 237 238 211 221 233 225 262 223 258 143 209 225 251 267 272 258 273 271 276 282 331 291 283 277 242 246 193 202 172 184
357 21 102 118 83 282 338 326 298 236 271 125 153 105 205 244 357 163 222 229 252 230 232 219 200 222 247 267 291 277 274 264 279 276 283 270 259 270 205 191 174 171 147 175 251
10 46 108 96 99 7 332 310 219 231 250 172 181 208 245 212 237 284 235 224 283 262 240 258 261 262 269 259 239 310 247 247 253 265 262 253 248 254 197 220 172 185 344 256 218
9 67 112 96 9 333 329 215 235 251 103 181 225 233 269 266 259 250 257 240 241 237 239 236 235 228 242 227 200 230 250 274 269 224 255 85 246 253 174 175 264 287 275 326 273
329 354 214 101 329 326 261 221 248 31 258 52 268 278 266 278 247 262 262 259 224 261 268 275 254 201 199 235 264 231 269 279 285 276 273 155 250 170 209 168 298 251 171 233 275
306 239 224 300 305 295 241 231 277 341 352 297 293 267 264 237 267 269 266 270 271 223 254 281 250 148 250 234 235 250 232 301 288 271 264 261 245 221 211 222 184 179 232 273 289
305 230 196 327 268 243 238 257 276 251 298 269 279 266 272 256 250 252 281 341 264 246 251 279 275 256 246 238 242 248 286 241 216 265 259 249 240 236 168 176 181 243 291 307 296
262 243 91 340 216 230 248 292 290 273 258 264 270 268 273 277 281 280 268 274 245 253 245 276 257 271 214 240 256 199 225 224 269 267 256 272 268 88 147 243 250 266 300 307 305
304 235 25 310 254 253 265 328 359 277 263 263 265 266 271 275 274 273 263 256 213 277 251 244 271 268 262 253 269 262 272 250 243 246 237 262 270 298 247 255 272 280 303 300 306
327 310 54 315 276 289 311 282 268 279 269 267 260 251 294 273 276 263 271 296 303 259 267 280 248 269 261 235 248 243 245 247 257 252 259 255 235 161 212 251 292 306 302 298 292
301 301 151 78 7 313 322 289 276 231 272 265 272 275 270 266 258 265 272 249 226 277 20 294 265 260 270 292 158 241 259 258 233 240 252 249 266 271 273 281 297 300 297 296 287
359 24 352 301 168 318 278 288 299 292 239 273 251 254 292 276 276 273 274 276 267 260 257 254 265 270 275 278 276 276 266 260 252 246 250 265 270 274 279 285 292 297 290 286 283
337 332 245 287 296 290 263 279 299 304 265 278 267 292 286 273 278 290 294 282 277 274 263 257 261 269 267 270 268 272 274 258 258 262 263 264 267 274 277 276 274 286 275 278 285
3 282 279 263 249 278 305 300 301 304 279 264 287 294 281 281 297 292 285 281 272 273 265 268 270 294 265 266 288 262 256 256 253 253 253 258 266 286 292 268 288 290 298 293 293